[[{"header":{"parameterUnit":"m.s-1","parameterCategory":2,"la1":30.2991,"la2":30.254,"lo1":-89.0895,"lo2":-89.0444,"dy":0.0017,"dx":0.0017,"nx":28,"ny":28,"refTime":"2024-06-25T09:00:00:Z","depth":"0","parameterNumber":2,"parameterNumberName":"U-component_of_CURRENTS"},"data":[0,0,0,0,0,0,0,0,0,0,0,0,0,0,0,0,0,0,0,0,0,0,0,0,0,0,0,0,0,0,0,0,0,0,0,0,0,0,0,0,0,0,0,0,0,0,0,0,0,0,0,0,0,0,0,0,0,0,0.3918,0.392,0,0.4061,0.4062,0.4063,0.4096,0.4096,0.4096,0.4096,0.4267,0.4271,0.4276,0,0,0,0,0,0,0,0,0,0,0,0,0,0.3441,0.345,0.3917,0.392,0.3923,0.4061,0.4062,0.4063,0.4096,0.4096,0.4096,0.4096,0.4265,0.4271,0.4276,0,0,0,0,0,0,0,0,0,0,0,0,0,0.3613,0.3453,0.3917,0.3964,0.397,0.4061,0.4062,0.4063,0.4096,0.4096,0.4096,0.4096,0.4263,0.427,0.4277,0.4321,0,0,0.4298,0.4301,0,0,0,0,0,0,0,0,0.3603,0.3629,0.3954,0.3961,0.3968,0.407,0.3957,0.4155,0.4096,0.4037,0.4096,0.4095,0.421,0.4222,0.4234,0.4329,0.4337,0.4299,0.4303,0.4306,0.4308,0,0,0,0,0,0,0,0.3592,0.3622,0.3964,0.3957,0.3966,0.3899,0.3924,0.3993,0.4115,0.4042,0.4047,0.408,0.4213,0.4227,0.4238,0.4339,0.4299,0.4305,0.4309,0.4312,0.4458,0.4458,0,0,0,0,0,0,0.3609,0.3613,0.396,0.3969,0.3793,0.3909,0.3937,0.4029,0.4114,0.4129,0.408,0.4081,0.4215,0.423,0.4244,0.4295,0.4306,0.4312,0.4316,0.4458,0.4458,0.4457,0,0,0,0,0,0,0.3599,0.3641,0.3954,0.3797,0.3834,0.3921,0.4021,0.4032,0.4043,0.4144,0.4158,0.4081,0.4215,0.4235,0.4289,0.4302,0.4315,0.4322,0.4458,0.4458,0.4458,0.4401,0,0,0,0,0,0,0.3586,0.3638,0.3699,0.3802,0.3844,0.3982,0.4023,0.4035,0.4069,0.4071,0.415,0.4166,0.4217,0.4279,0.4296,0.4312,0.4327,0.4459,0.4458,0.4458,0.4403,0.4399,0.4395,0,0,0,0,0,0.3569,0.3658,0.3703,0.3744,0.3933,0.3983,0.3995,0.4045,0.4068,0.4056,0.4117,0.4163,0.4288,0.4284,0.4305,0.4323,0.4459,0.4458,0.4458,0.4405,0.44,0.4395,0,0,0,0,0,0,0.346,0.3674,0.3724,0.387,0.391,0.3991,0.4015,0.4039,0.4078,0.4086,0.4166,0.4185,0.4244,0.4283,0.4276,0.436,0.4379,0.4383,0.4332,0.4328,0.4324,0.4335,0.4333,0,0,0,0,0,0.3477,0.3608,0.3736,0.383,0.3871,0.3936,0.3965,0.3987,0.4045,0.4061,0.4121,0.4188,0.4259,0.4289,0.4352,0.4397,0.4438,0.4418,0.4414,0.441,0.4431,0.4476,0.4478,0.4456,0.4456,0.4456,0,0,0.3439,0.3588,0.3647,0.3815,0.3866,0.3917,0.3949,0.3985,0.4015,0.4078,0.4133,0.4184,0.4269,0.4321,0.4349,0.4353,0.4435,0.4409,0.4406,0.443,0.4476,0.4478,0.448,0.4455,0.4455,0.4455,0,0,0.3448,0.3582,0.3694,0.3736,0.3839,0.3882,0.3889,0.3964,0.3988,0.4043,0.41,0.4151,0.4252,0.4306,0.4355,0.4365,0.4418,0.4374,0.4362,0.4403,0.4406,0.4409,0.445,0.4457,0.4364,0.4364,0.4364,0,0.3398,0.3575,0.3699,0.3792,0.3821,0.3869,0.3908,0.3948,0.4013,0.4038,0.4054,0.4194,0.4259,0.4337,0.434,0.4362,0.4385,0.4373,0.4398,0.4402,0.4406,0.4448,0.4457,0.4361,0.4361,0.4361,0.4362,0,0.3483,0.3592,0.3637,0.3802,0.3833,0.3852,0.3932,0.3952,0.3994,0.4037,0.4107,0.4181,0.4263,0.4282,0.433,0.4381,0.4388,0.4393,0.441,0.4405,0.4449,0.4459,0.4357,0.4358,0.4359,0.4359,0,0,0.3426,0.3665,0.3665,0.3719,0.3826,0.3849,0.391,0.3972,0.4008,0.4062,0.4119,0.4221,0.4242,0.4296,0.4335,0.437,0.4419,0.4387,0.439,0.4428,0.4506,0.4362,0.4359,0.4414,0.4416,0.4417,0.4521,0,0.3431,0.3607,0.3711,0.3759,0.3827,0.387,0.3915,0.3964,0.4023,0.4083,0.4156,0.4233,0.4253,0.4289,0.4325,0.4426,0.4445,0.4391,0.4508,0.4512,0.4384,0.4365,0.4171,0.4233,0.4531,0.4533,0.4534,0,0.3456,0.3582,0.3678,0.3771,0.3796,0.3816,0.3871,0.392,0.4018,0.4069,0.4141,0.4208,0.431,0.4308,0.4448,0.4408,0.445,0.45,0.4505,0.4404,0.4386,0.429,0.4241,0.4206,0.455,0.4549,0.4548,0,0.3352,0.3516,0.3594,0.362,0.3756,0.3771,0.3817,0.3903,0.3938,0.4068,0.4103,0.4227,0.4289,0.4384,0.4489,0.4481,0.4616,0.4622,0.4521,0.4513,0.439,0.4366,0.4321,0.468,0.468,0.4679,0.4679,0,0.3313,0.3334,0.3552,0.3571,0.3607,0.3715,0.3735,0.3806,0.3901,0.3929,0.4079,0.4115,0.4304,0.4397,0.4496,0.4535,0.4622,0.4524,0.4524,0.4359,0.4332,0.4331,0.4332,0.4683,0.4682,0.4682,0.4681,0,0.3152,0.3305,0.3372,0.3529,0.3565,0.3579,0.3665,0.3689,0.3799,0.3847,0.389,0.4051,0.4178,0.433,0.4499,0.4509,0.4478,0.457,0.436,0.433,0.4172,0.4175,0.3974,0.388,0.4496,0.4493,0.4491,0,0.3092,0.3138,0.3305,0.3344,0.3402,0.346,0.349,0.3616,0.3642,0.378,0.3785,0.3931,0.3985,0.4182,0.4267,0.4393,0.4335,0.4249,0.4185,0.4125,0.4135,0.399,0.3917,0.402,0.4013,0.4008,0.4004,0,0.2946,0.301,0.3081,0.3184,0.3232,0.3283,0.3339,0.3349,0.3483,0.3514,0.355,0.3617,0.3787,0.3824,0.3982,0.4042,0.405,0.4141,0.4146,0.3797,0.3574,0.3496,0.4009,0.3959,0.3963,0.3967,0.3969,0.3971,0.2796,0.2814,0.2934,0.2986,0.3048,0.3078,0.3034,0.3101,0.3102,0.3104,0.3263,0.3279,0.345,0.3637,0.367,0.3667,0.3696,0.3627,0.3657,0.3531,0.3346,0.3737,0.3631,0.3633,0.3635,0.3637,0.3639,0,0.2634,0.2682,0.2734,0.2795,0.2771,0.2876,0.2894,0.2817,0.2732,0.2847,0.283,0.2957,0.3015,0.3192,0.3317,0.3252,0.3119,0.3211,0.302,0.2994,0.3417,0.3303,0.3036,0.3036,0.3036,0.3036,0.3036,0.3037,0.2563,0.255,0.2585,0.2504,0.2527,0.2433,0.2399,0.233,0.236,0.2355,0.2421,0.2525,0.2892,0.3069,0.3087,0.3014,0.2886,0.2683,0.2771,0.3158,0.3201,0.3242,0.3134,0.2837,0.2837,0.2193,0.2188,0.2185]},{"header":{"parameterUnit":"m.s-1","parameterCategory":2,"la1":30.2991,"la2":30.254,"lo1":-89.0895,"lo2":-89.0444,"dy":0.0017,"dx":0.0017,"nx":28,"ny":28,"refTime":"2024-06-25T09:00:00:Z","depth":"0","parameterNumber":3,"parameterNumberName":"V-component_of_CURRENTS"},"data":[0,0,0,0,0,0,0,0,0,0,0,0,0,0,0,0,0,0,0,0,0,0,0,0,0,0,0,0,0,0,0,0,0,0,0,0,0,0,0,0,0,0,0,0,0,0,0,0,0,0,0,0,0,0,0,0,0,0,0.0214,0.0213,0,0.0086,0.0085,0.0083,0.001,0.001,0.0009,0.0009,-0.0105,-0.0108,-0.011,0,0,0,0,0,0,0,0,0,0,0,0,0,0.0335,0.0333,0.0214,0.0212,0.0211,0.0086,0.0085,0.0083,0.001,0.001,0.0009,0.0009,-0.0104,-0.0107,-0.011,0,0,0,0,0,0,0,0,0,0,0,0,0,0.0255,0.0333,0.0215,0.0157,0.0151,0.0086,0.0084,0.0083,0.0011,0.001,0.0009,0.0008,-0.0103,-0.0107,-0.0111,-0.0119,0,0,-0.0123,-0.0124,0,0,0,0,0,0,0,0,0.026,0.0251,0.0168,0.0161,0.0153,0.0061,0.0085,0.0015,0.0011,0.0067,0.0009,0.0008,-0.005,-0.0058,-0.0077,-0.0125,-0.013,-0.0123,-0.0125,-0.0127,-0.0128,0,0,0,0,0,0,0,0.0265,0.0256,0.0166,0.0166,0.0157,0.0116,0.0105,0.0071,0.0017,0.0062,0.0055,0.0037,-0.0053,-0.0073,-0.008,-0.0131,-0.0123,-0.0126,-0.0129,-0.013,-0.0127,-0.0125,0,0,0,0,0,0,0.0279,0.0261,0.017,0.0162,0.0202,0.0115,0.0102,0.0094,0.0017,0.0003,0.0038,0.0034,-0.0066,-0.0075,-0.0084,-0.0053,-0.0127,-0.0131,-0.0133,-0.013,-0.0127,-0.0124,0,0,0,0,0,0,0.0283,0.0273,0.0175,0.0206,0.019,0.0114,0.0104,0.0091,0.0074,-0.0002,-0.0015,0.0033,-0.0067,-0.0079,-0.0094,-0.0059,-0.0132,-0.0136,-0.0132,-0.0129,-0.0125,-0.0019,0,0,0,0,0,0,0.0287,0.0275,0.0283,0.0207,0.0189,0.0158,0.0104,0.0089,0.0062,0.0056,-0.001,-0.0022,-0.0068,-0.0088,-0.0098,-0.0066,-0.0139,-0.0135,-0.0131,-0.0126,-0.0026,-0.0012,-0.0001,0,0,0,0,0,0.0292,0.0301,0.0285,0.0273,0.02,0.0159,0.0147,0.0091,0.0063,0.007,0.0027,-0.002,-0.0066,-0.0089,-0.0102,-0.007,-0.0138,-0.0132,-0.0127,-0.0031,-0.0015,-0.0001,0,0,0,0,0,0,0.0344,0.0292,0.0273,0.0262,0.0225,0.0146,0.014,0.0101,0.0071,0.0065,-0.0003,-0.0016,-0.0013,-0.005,-0.0074,-0.0051,-0.0104,-0.0101,-0.0027,-0.0013,-0.0,0.0017,-0.0142,0,0,0,0,0,0.0364,0.0369,0.0304,0.0301,0.0285,0.0218,0.0195,0.0157,0.0112,0.0097,0.0055,0.002,0.0,-0.0014,-0.0038,-0.0035,-0.0077,-0.0016,-0.0003,0.0007,0.0017,-0.001,-0.0001,-0.0106,-0.0106,-0.0107,0,0,0.0381,0.0356,0.0355,0.0315,0.028,0.0272,0.0204,0.0177,0.0177,0.0091,0.0093,0.0058,0.0012,0.0021,0.002,-0.0008,0.0018,0.0014,0.0023,0.0027,-0.0004,0.0006,0.0015,-0.0103,-0.0103,-0.0104,0,0,0.0421,0.0399,0.0416,0.0397,0.0354,0.0317,0.0316,0.0254,0.0236,0.0227,0.0176,0.0167,0.0128,0.011,0.0092,0.016,0.0084,0.0156,0.0226,0.02,0.0208,0.0215,0.0176,0.0178,0.0161,0.0162,0.0162,0,0.0443,0.0456,0.0415,0.0425,0.0415,0.0346,0.0357,0.0333,0.0279,0.028,0.0249,0.0217,0.0175,0.0187,0.0211,0.0187,0.015,0.0169,0.0214,0.022,0.0224,0.0184,0.0184,0.0167,0.0167,0.0166,0.0166,0,0.0489,0.0506,0.0514,0.0514,0.0501,0.0501,0.0457,0.0456,0.0426,0.0399,0.0406,0.0353,0.0332,0.0328,0.0283,0.0309,0.0265,0.023,0.0172,0.0241,0.0194,0.0193,0.0176,0.0174,0.0172,0.017,0,0,0.0523,0.0544,0.0551,0.0575,0.055,0.0543,0.0558,0.0552,0.0571,0.0536,0.0561,0.0529,0.0492,0.0472,0.0421,0.0402,0.0399,0.0335,0.0331,0.0289,0.0329,0.0297,0.0291,0.0364,0.0365,0.0365,0.0282,0,0.0574,0.0633,0.0618,0.0673,0.0698,0.0657,0.0679,0.0668,0.0652,0.0666,0.062,0.0624,0.0548,0.0542,0.0511,0.0437,0.0402,0.0424,0.0276,0.0271,0.0227,0.0291,0.0295,0.0221,0.0281,0.028,0.028,0,0.0627,0.0664,0.0733,0.077,0.0774,0.0794,0.082,0.0828,0.0826,0.0814,0.0802,0.0754,0.0734,0.0654,0.055,0.0564,0.0454,0.0385,0.0379,0.0312,0.0238,0.0162,0.0216,0.0077,0.0277,0.0278,0.0278,0,0.0695,0.0743,0.0811,0.0823,0.085,0.0876,0.0882,0.0886,0.0912,0.0915,0.0935,0.088,0.0862,0.0742,0.059,0.0567,0.0465,0.041,0.0273,0.0268,0.0224,0.0216,0.012,0.0322,0.0322,0.0322,0.0322,0,0.0766,0.0816,0.0855,0.0897,0.0969,0.0953,0.1023,0.1019,0.104,0.1095,0.1018,0.1042,0.0882,0.0798,0.0638,0.0466,0.0493,0.03,0.0255,0.0263,0.0259,0.0096,0.0019,0.0319,0.032,0.032,0.0321,0,0.0833,0.0864,0.0943,0.0993,0.1013,0.1064,0.1111,0.1159,0.1162,0.1232,0.124,0.1174,0.1061,0.0884,0.0694,0.0537,0.0289,0.029,0.0308,0.0267,0.0011,-0.0059,-0.0197,-0.0264,0.0135,0.0134,0.0133,0,0.0873,0.0929,0.1018,0.1071,0.11,0.1168,0.1216,0.1228,0.1282,0.1317,0.1361,0.1276,0.1225,0.0936,0.0656,0.0382,0.0238,0.0195,0.0152,0.0014,-0.0098,-0.0138,-0.0187,0.013,0.0129,0.0128,0.0127,0,0.0942,0.0979,0.1047,0.1165,0.1236,0.1311,0.1381,0.1444,0.1472,0.1516,0.1552,0.1516,0.1237,0.0971,0.06,0.0399,0.0113,0.0169,0.0026,-0.01,-0.0149,-0.024,0.0154,0.0121,0.0121,0.0122,0.0122,0.0123,0.0984,0.1047,0.1147,0.1252,0.1338,0.1443,0.1513,0.158,0.1668,0.1728,0.1688,0.1646,0.1286,0.0777,0.049,0.0018,0.002,-0.013,-0.0203,-0.0229,-0.0289,0.0091,0.0008,0.0008,0.0008,0.0008,0.0008,0,0.1024,0.1105,0.1217,0.135,0.145,0.1485,0.1612,0.1672,0.1768,0.1833,0.1831,0.1657,0.1173,0.0722,0.0096,-0.0265,-0.0387,-0.0455,-0.0512,-0.0545,-0.0211,-0.0206,-0.0337,-0.0337,-0.0337,-0.0336,-0.0336,-0.0336,0.1048,0.1162,0.1228,0.1413,0.1506,0.1629,0.1703,0.1785,0.186,0.1946,0.1953,0.1929,0.1663,0.0439,-0.0363,-0.0569,-0.0781,-0.0851,-0.0958,-0.0736,-0.0711,-0.0687,-0.07,-0.0932,-0.0933,-0.1243,-0.1247,-0.1249]}],[{"header":{"parameterUnit":"m.s-1","parameterCategory":2,"la1":30.2991,"la2":30.254,"lo1":-89.0895,"lo2":-89.0444,"dy":0.0017,"dx":0.0017,"nx":28,"ny":28,"refTime":"2024-06-25T09:00:00:Z","depth":"2","parameterNumber":2,"parameterNumberName":"U-component_of_CURRENTS"},"data":[0,0,0,0,0,0,0,0,0,0,0,0,0,0,0,0,0,0,0,0,0,0,0,0,0,0,0,0,0,0,0,0,0,0,0,0,0,0,0,0,0,0,0,0,0,0,0,0,0,0,0,0,0,0,0,0,0,0,0.3315,0.3315,0,0.3356,0.3357,0.3357,0.3356,0.3355,0.3355,0.3354,0.3419,0.3422,0.3424,0,0,0,0,0,0,0,0,0,0,0,0,0,0.3017,0.3024,0.3315,0.3315,0.3316,0.3356,0.3357,0.3357,0.3356,0.3355,0.3355,0.3354,0.3419,0.3421,0.3424,0,0,0,0,0,0,0,0,0,0,0,0,0,0.3112,0.3026,0.3315,0.3321,0.3321,0.3356,0.3357,0.3357,0.3356,0.3355,0.3355,0.3354,0.3418,0.3421,0.3424,0.3461,0,0,0.3435,0.3436,0,0,0,0,0,0,0,0,0.3107,0.3123,0.3319,0.332,0.3321,0.335,0.3275,0.3393,0.3356,0.3343,0.3354,0.3353,0.3399,0.3404,0.3413,0.3464,0.3467,0.3435,0.3437,0.3438,0.3439,0,0,0,0,0,0,0,0.31,0.3119,0.3331,0.332,0.3321,0.3246,0.3261,0.3297,0.3375,0.3344,0.3344,0.3349,0.34,0.341,0.3415,0.3468,0.3435,0.3438,0.344,0.3441,0.3669,0.3673,0,0,0,0,0,0,0.311,0.3116,0.333,0.3332,0.321,0.3253,0.3269,0.3342,0.3374,0.3378,0.335,0.3349,0.3404,0.3411,0.3417,0.3516,0.3438,0.3441,0.3443,0.3665,0.367,0.3674,0,0,0,0,0,0,0.3105,0.3131,0.3328,0.3219,0.3239,0.3261,0.3341,0.3343,0.3391,0.3379,0.3383,0.34,0.3404,0.3412,0.3494,0.3516,0.3443,0.3446,0.366,0.3666,0.3672,0.3681,0,0,0,0,0,0,0.3097,0.3131,0.3174,0.3224,0.3246,0.335,0.3342,0.3344,0.3393,0.3394,0.3423,0.3426,0.3404,0.3489,0.3497,0.352,0.3449,0.3655,0.3663,0.367,0.3675,0.3686,0.3696,0,0,0,0,0,0.3087,0.3126,0.3178,0.3202,0.3313,0.3351,0.3355,0.3363,0.3397,0.3409,0.346,0.3427,0.3542,0.3495,0.3504,0.3527,0.3651,0.366,0.3669,0.3671,0.3684,0.3695,0,0,0,0,0,0,0.2999,0.3133,0.3188,0.3267,0.3316,0.335,0.336,0.3399,0.3452,0.347,0.3478,0.3485,0.3553,0.3572,0.352,0.3626,0.3593,0.3604,0.3591,0.3604,0.3614,0.362,0.3451,0,0,0,0,0,0.3014,0.3083,0.3192,0.3241,0.3293,0.3353,0.3373,0.3397,0.3449,0.3472,0.3505,0.3556,0.3594,0.3626,0.365,0.3724,0.3734,0.3753,0.3763,0.3771,0.379,0.3826,0.3838,0.3704,0.3704,0.3704,0,0,0.2983,0.3064,0.31,0.3226,0.3279,0.336,0.3363,0.3414,0.3466,0.3474,0.3563,0.3586,0.3624,0.368,0.3716,0.3702,0.3821,0.3783,0.3788,0.3803,0.3836,0.3848,0.3859,0.371,0.3709,0.3708,0,0,0.2982,0.3059,0.3156,0.3209,0.3312,0.3347,0.3386,0.3477,0.3506,0.3612,0.3613,0.3681,0.3763,0.3772,0.3796,0.3902,0.3864,0.3906,0.3965,0.3999,0.4008,0.4017,0.4048,0.4059,0.392,0.3921,0.3921,0,0.2953,0.3091,0.3166,0.3274,0.3306,0.3368,0.3459,0.3501,0.3592,0.3624,0.3651,0.3778,0.3812,0.3863,0.3902,0.3919,0.3925,0.3896,0.4005,0.4014,0.4022,0.4052,0.4064,0.3922,0.3922,0.3922,0.3922,0,0.3068,0.3148,0.3189,0.3364,0.341,0.3459,0.3555,0.3604,0.3674,0.3721,0.3807,0.3861,0.393,0.3953,0.3972,0.4037,0.4017,0.3993,0.3952,0.4035,0.4063,0.4075,0.3924,0.3924,0.3923,0.3923,0,0,0.3057,0.3246,0.3261,0.3318,0.345,0.3489,0.3584,0.3671,0.3723,0.3819,0.3894,0.3988,0.4007,0.404,0.4043,0.4097,0.4178,0.4083,0.4084,0.4077,0.4244,0.3984,0.3972,0.4148,0.415,0.4152,0.4237,0,0.312,0.3299,0.3384,0.3476,0.3549,0.3603,0.3666,0.3739,0.3811,0.3887,0.3951,0.4024,0.4035,0.407,0.4124,0.4178,0.4212,0.4157,0.4199,0.4202,0.3928,0.3978,0.3707,0.3737,0.4249,0.4251,0.4253,0,0.3199,0.3297,0.3439,0.35,0.3548,0.3612,0.3686,0.3755,0.3854,0.3916,0.3997,0.4044,0.4156,0.4145,0.4269,0.4227,0.4242,0.4274,0.4276,0.4038,0.3963,0.3743,0.3739,0.4273,0.4271,0.427,0.4268,0,0.3113,0.3283,0.3377,0.3414,0.3552,0.3599,0.3659,0.3761,0.3796,0.3931,0.3976,0.4101,0.4157,0.424,0.4327,0.4306,0.444,0.4411,0.4179,0.4162,0.3944,0.39,0.4459,0.4459,0.4459,0.4459,0.4458,0,0.3085,0.3126,0.3342,0.3384,0.3445,0.3559,0.3616,0.3693,0.3792,0.3818,0.3968,0.399,0.4179,0.4266,0.4347,0.4302,0.4452,0.4195,0.4161,0.3939,0.3896,0.4372,0.4361,0.4462,0.4461,0.446,0.446,0,0.2918,0.3086,0.3153,0.334,0.3403,0.343,0.3559,0.359,0.3703,0.3746,0.3788,0.3934,0.4034,0.4185,0.4329,0.4264,0.4306,0.4231,0.3953,0.3879,0.4007,0.3997,0.3995,0.3987,0.3979,0.3973,0.3968,0,0.286,0.2899,0.3093,0.3162,0.3246,0.3331,0.3387,0.3522,0.3545,0.3669,0.3663,0.3786,0.3778,0.3897,0.3919,0.3976,0.4117,0.3658,0.3539,0.3989,0.3959,0.3959,0.3959,0.3296,0.3285,0.3277,0.327,0,0.2707,0.2778,0.286,0.2991,0.3085,0.3154,0.3242,0.3244,0.3374,0.3384,0.339,0.3402,0.3477,0.3377,0.3416,0.3415,0.3641,0.3472,0.4059,0.3402,0.332,0.3292,0.3318,0.3196,0.3203,0.3209,0.3213,0.3216,0.2576,0.2574,0.2712,0.2789,0.2893,0.2944,0.2906,0.2973,0.2949,0.2914,0.3054,0.2961,0.3021,0.2895,0.2865,0.2877,0.3094,0.2979,0.3011,0.305,0.2901,0.2804,0.2559,0.2562,0.2565,0.2568,0.2571,0,0.2414,0.2454,0.2522,0.261,0.2604,0.274,0.2772,0.2674,0.2542,0.2607,0.2548,0.2333,0.2236,0.236,0.2243,0.2208,0.2275,0.213,0.2228,0.23,0.2365,0.2187,0.1653,0.165,0.1648,0.1645,0,0,0.2357,0.2341,0.236,0.2307,0.2356,0.2284,0.2249,0.2142,0.2125,0.1991,0.1941,0.2075,0.2205,0.1879,0.186,0.1737,0.2011,0.1671,0.2406,0.259,0.2652,0.2846,0.2648,0,0,0,0,0]},{"header":{"parameterUnit":"m.s-1","parameterCategory":2,"la1":30.2991,"la2":30.254,"lo1":-89.0895,"lo2":-89.0444,"dy":0.0017,"dx":0.0017,"nx":28,"ny":28,"refTime":"2024-06-25T09:00:00:Z","depth":"2","parameterNumber":3,"parameterNumberName":"V-component_of_CURRENTS"},"data":[0,0,0,0,0,0,0,0,0,0,0,0,0,0,0,0,0,0,0,0,0,0,0,0,0,0,0,0,0,0,0,0,0,0,0,0,0,0,0,0,0,0,0,0,0,0,0,0,0,0,0,0,0,0,0,0,0,0,0.0041,0.004,0,-0.0049,-0.005,-0.0052,-0.0135,-0.0135,-0.0136,-0.0136,-0.0259,-0.0262,-0.0265,0,0,0,0,0,0,0,0,0,0,0,0,0,0.0184,0.0181,0.0041,0.004,0.004,-0.0048,-0.005,-0.0052,-0.0135,-0.0135,-0.0136,-0.0137,-0.0258,-0.0262,-0.0265,0,0,0,0,0,0,0,0,0,0,0,0,0,0.0106,0.018,0.0041,-0.0008,-0.0013,-0.0048,-0.005,-0.0052,-0.0135,-0.0135,-0.0136,-0.0137,-0.0257,-0.0261,-0.0266,-0.0276,0,0,-0.0278,-0.028,0,0,0,0,0,0,0,0,0.011,0.01,-0.0,-0.0005,-0.001,-0.0076,-0.0045,-0.0127,-0.0134,-0.0094,-0.0136,-0.0137,-0.0197,-0.0206,-0.0229,-0.0282,-0.0287,-0.0279,-0.0281,-0.0283,-0.0284,0,0,0,0,0,0,0,0.0115,0.0103,-0.0,-0.0001,-0.0007,-0.001,-0.0023,-0.0061,-0.0145,-0.0098,-0.0103,-0.0104,-0.0201,-0.0225,-0.0232,-0.0289,-0.0279,-0.0282,-0.0285,-0.0287,-0.0306,-0.0305,0,0,0,0,0,0,0.0136,0.0108,0.0003,-0.0002,0.0056,-0.0012,-0.0027,-0.0059,-0.0144,-0.0156,-0.0103,-0.0107,-0.0217,-0.0227,-0.0237,-0.0205,-0.0283,-0.0287,-0.0289,-0.0308,-0.0306,-0.0304,0,0,0,0,0,0,0.0139,0.0126,0.0006,0.0058,0.0043,-0.0013,-0.0049,-0.006,-0.0075,-0.0147,-0.0161,-0.0104,-0.0218,-0.0231,-0.0249,-0.0212,-0.0289,-0.0293,-0.0311,-0.0308,-0.0305,-0.0173,0,0,0,0,0,0,0.0142,0.0126,0.014,0.0058,0.0041,0.0008,-0.0048,-0.0061,-0.0072,-0.0079,-0.0152,-0.0165,-0.022,-0.0243,-0.0253,-0.022,-0.0296,-0.0313,-0.0309,-0.0306,-0.018,-0.0166,-0.0154,0,0,0,0,0,0.0147,0.0149,0.014,0.013,0.005,0.0011,0.0002,-0.0044,-0.0071,-0.0064,-0.0112,-0.0162,-0.0227,-0.0244,-0.0258,-0.0224,-0.0315,-0.031,-0.0306,-0.0185,-0.0168,-0.0154,0,0,0,0,0,0,0.0206,0.0139,0.0128,0.0107,0.0081,-0.0001,0.0007,-0.0028,-0.0063,-0.0068,-0.0145,-0.016,-0.0162,-0.0207,-0.0225,-0.0217,-0.0276,-0.0274,-0.0179,-0.0164,-0.0151,-0.0123,-0.0299,0,0,0,0,0,0.0233,0.0225,0.0161,0.0156,0.0142,0.0082,0.007,0.0035,-0.0016,-0.0033,-0.0085,-0.013,-0.0154,-0.017,-0.0205,-0.0203,-0.0247,-0.0187,-0.0174,-0.0163,-0.0147,-0.0182,-0.0171,-0.0289,-0.0289,-0.0289,0,0,0.0257,0.0224,0.0221,0.0174,0.0143,0.0137,0.007,0.0053,0.0054,-0.0039,-0.0048,-0.0089,-0.0144,-0.0141,-0.0145,-0.0174,-0.0149,-0.0157,-0.0147,-0.0138,-0.0176,-0.0165,-0.0155,-0.0286,-0.0287,-0.0287,0,0,0.0301,0.0268,0.0281,0.0266,0.0238,0.0197,0.0199,0.0131,0.011,0.0103,0.004,0.003,-0.0021,-0.0047,-0.0066,0.0001,-0.0081,-0.0013,0.0074,0.0041,0.005,0.0057,0.0025,0.0029,-0.0005,-0.0005,-0.0005,0,0.0342,0.0336,0.0285,0.0296,0.0296,0.0229,0.0244,0.0214,0.0156,0.0156,0.0124,0.0078,0.0031,0.0041,0.0064,0.0032,-0.0009,0.0017,0.0057,0.0064,0.0069,0.0034,0.0036,0.0002,0.0001,0.0,-0.0,0,0.0387,0.0401,0.0404,0.0395,0.039,0.0391,0.0344,0.0339,0.0309,0.0285,0.0289,0.0229,0.0203,0.0194,0.0148,0.0172,0.0124,0.0076,0.0017,0.0089,0.0048,0.0048,0.0012,0.0009,0.0007,0.0005,0,0,0.0425,0.0435,0.0444,0.0471,0.0443,0.0438,0.0449,0.0444,0.0466,0.0428,0.0456,0.0422,0.0385,0.0362,0.0301,0.0281,0.0288,0.0204,0.0199,0.0173,0.0211,0.014,0.0132,0.0235,0.0236,0.0237,0.0169,0,0.0482,0.0538,0.0518,0.0578,0.0598,0.0557,0.0577,0.0571,0.0556,0.0567,0.0524,0.0525,0.0447,0.0443,0.0411,0.0325,0.0292,0.0311,0.0144,0.014,0.0068,0.0131,0.0152,0.009,0.0168,0.0168,0.0168,0,0.0536,0.0569,0.0642,0.0678,0.0681,0.0708,0.0734,0.0742,0.0741,0.0731,0.0723,0.0672,0.0653,0.0566,0.0459,0.0469,0.0354,0.0278,0.0272,0.016,0.0069,0.0029,0.0086,0.0167,0.0167,0.0167,0.0167,0,0.0607,0.0653,0.0723,0.0737,0.0764,0.0796,0.0802,0.0809,0.0834,0.0839,0.0863,0.0809,0.079,0.0664,0.0506,0.0479,0.0375,0.0309,0.0134,0.0127,0.0091,0.008,0.0218,0.0218,0.0218,0.0218,0.0218,0,0.0676,0.073,0.077,0.0817,0.0894,0.0879,0.0957,0.0954,0.0975,0.1029,0.0953,0.0969,0.081,0.0722,0.056,0.0363,0.0408,0.0167,0.0112,0.0138,0.0132,0.0149,0.0142,0.0216,0.0216,0.0217,0.0217,0,0.0742,0.0776,0.0856,0.0913,0.0939,0.0993,0.1049,0.1099,0.1104,0.117,0.1179,0.1103,0.0982,0.0807,0.0608,0.0431,0.0253,0.0156,0.0201,0.0151,0.0011,0.0012,-0.0035,-0.0038,-0.004,-0.0042,-0.0044,0,0.0781,0.0836,0.0932,0.0993,0.1028,0.1103,0.1157,0.117,0.1225,0.1249,0.1289,0.1194,0.1107,0.0797,0.0517,0.0233,0.0204,0.0035,-0.0022,0.0038,-0.0011,-0.0007,-0.0003,-0.0012,-0.0013,-0.0014,-0.0015,0,0.0847,0.0887,0.0956,0.1083,0.1165,0.1245,0.1323,0.1382,0.1408,0.1437,0.1446,0.1375,0.1077,0.0783,0.0395,0.02,0.009,-0.0002,0.007,0.0039,0.0051,0.0005,0.001,-0.0025,-0.0024,-0.0023,-0.0022,-0.0022,0.0893,0.0949,0.1053,0.1164,0.1264,0.1375,0.144,0.1502,0.1571,0.1596,0.1545,0.1419,0.1115,0.0587,0.0282,-0.0023,-0.0023,-0.0149,-0.0141,-0.0134,-0.0128,-0.0123,-0.023,-0.023,-0.023,-0.023,-0.023,0,0.0931,0.1006,0.1122,0.1261,0.1366,0.1413,0.1538,0.1574,0.1633,0.1649,0.1607,0.1286,0.0929,0.0603,0.0132,-0.0178,-0.0172,-0.0266,-0.0179,-0.0169,-0.016,-0.0152,-0.0262,-0.0263,-0.0263,-0.0264,0,0,0.0957,0.1065,0.1123,0.1313,0.1414,0.1538,0.1605,0.1643,0.167,0.1641,0.1565,0.1424,0.1018,0.0672,0.0284,0.0021,-0.0002,-0.0036,0.0018,0.0177,0.019,-0.007,-0.0045,0,0,0,0,0]}],[{"header":{"parameterUnit":"m.s-1","parameterCategory":2,"la1":30.2991,"la2":30.254,"lo1":-89.0895,"lo2":-89.0444,"dy":0.0017,"dx":0.0017,"nx":28,"ny":28,"refTime":"2024-06-25T09:00:00:Z","depth":"4","parameterNumber":2,"parameterNumberName":"U-component_of_CURRENTS"},"data":[0,0,0,0,0,0,0,0,0,0,0,0,0,0,0,0,0,0,0,0,0,0,0,0,0,0,0,0,0,0,0,0,0,0,0,0,0,0,0,0,0,0,0,0,0,0,0,0,0,0,0,0,0,0,0,0,0,0,0.0147,0.0145,0,0.0132,0.0133,0.0135,0.0206,0.0206,0.0207,0.0207,0.0306,0.0309,0.0311,0,0,0,0,0,0,0,0,0,0,0,0,0,0.0646,0.0636,0.0147,0.0145,0.0143,0.0132,0.0134,0.0135,0.0206,0.0206,0.0207,0.0207,0.0306,0.0308,0.0311,0,0,0,0,0,0,0,0,0,0,0,0,0,0.0528,0.0632,0.0147,0.0163,0.0163,0.0132,0.0134,0.0136,0.0206,0.0206,0.0207,0.0207,0.0305,0.0308,0.0312,0.0325,0,0,0.0323,0.0324,0,0,0,0,0,0,0,0,0.0534,0.0512,0.0162,0.0161,0.0161,0.0154,0.0345,0.0198,0.0206,0.021,0.0207,0.0207,0.0253,0.0261,0.0283,0.033,0.0334,0.0323,0.0325,0.0327,0.0328,0,0,0,0,0,0,0,0.0542,0.0515,0.0161,0.016,0.0159,0.0309,0.0292,0.0321,0.0247,0.021,0.021,0.0177,0.0256,0.028,0.0286,0.0336,0.0323,0.0326,0.0328,0.033,0.0466,0.0467,0,0,0,0,0,0,0.0479,0.0518,0.0161,0.0158,0.0331,0.0297,0.0278,0.0172,0.0244,0.0248,0.0177,0.018,0.0273,0.0282,0.029,0.043,0.0326,0.033,0.0332,0.0464,0.0466,0.0468,0,0,0,0,0,0,0.0489,0.0445,0.0161,0.033,0.0301,0.0282,0.0167,0.0171,0.0224,0.0214,0.0225,0.0226,0.0274,0.0285,0.0364,0.0429,0.0331,0.0335,0.0463,0.0465,0.0467,0.0632,0,0,0,0,0,0,0.0503,0.0447,0.0404,0.0321,0.0288,0.0159,0.0164,0.017,0.0191,0.0198,0.0259,0.0267,0.0275,0.0359,0.0368,0.0432,0.0338,0.0461,0.0464,0.0466,0.0625,0.064,0.0653,0,0,0,0,0,0.052,0.0413,0.04,0.036,0.0207,0.0158,0.016,0.0166,0.0193,0.0221,0.028,0.0267,0.0381,0.0365,0.0374,0.0441,0.0459,0.0463,0.0466,0.0619,0.0637,0.0652,0,0,0,0,0,0,0.0639,0.0405,0.0391,0.0229,0.0213,0.0163,0.0158,0.0187,0.0257,0.0288,0.0304,0.0317,0.0409,0.039,0.037,0.048,0.041,0.0416,0.0523,0.054,0.0554,0.0603,0.034,0,0,0,0,0,0.0629,0.0472,0.0359,0.0256,0.022,0.0214,0.0211,0.0235,0.025,0.0283,0.0355,0.0399,0.0423,0.0455,0.049,0.0558,0.0526,0.0595,0.0609,0.0622,0.0664,0.0761,0.0789,0.0479,0.0479,0.0478,0,0,0.0696,0.0505,0.0459,0.0273,0.0246,0.0263,0.0218,0.0215,0.0307,0.0282,0.046,0.0467,0.0452,0.054,0.0576,0.0539,0.0655,0.0626,0.0637,0.0673,0.0768,0.0799,0.0826,0.0481,0.048,0.048,0,0,0.0666,0.0529,0.0397,0.0371,0.0283,0.0313,0.032,0.0336,0.0405,0.054,0.0539,0.0583,0.0678,0.0674,0.067,0.0769,0.0732,0.0779,0.0899,0.0993,0.1021,0.1046,0.089,0.09,0.0783,0.0783,0.0783,0,0.0759,0.0546,0.0395,0.0288,0.0322,0.0343,0.0378,0.0441,0.0538,0.0604,0.0623,0.0748,0.0737,0.0784,0.0833,0.0806,0.0798,0.0843,0.1018,0.1043,0.1066,0.0902,0.0911,0.0791,0.079,0.0789,0.0789,0,0.0645,0.0547,0.0477,0.0364,0.0412,0.0432,0.0499,0.0618,0.0735,0.0806,0.093,0.0931,0.0994,0.0982,0.0957,0.1086,0.0994,0.1033,0.0991,0.1109,0.0923,0.093,0.0803,0.08,0.0798,0.0796,0,0,0.0697,0.0445,0.0435,0.0446,0.0471,0.0506,0.0668,0.0797,0.0914,0.1038,0.1167,0.1208,0.1221,0.1215,0.1168,0.1246,0.133,0.1247,0.1248,0.1111,0.1407,0.141,0.1414,0.147,0.1476,0.1481,0.1155,0,0.0696,0.0477,0.0434,0.0536,0.0512,0.0649,0.0809,0.0961,0.1096,0.1243,0.1239,0.1342,0.1298,0.1335,0.1414,0.1364,0.1387,0.1404,0.1296,0.1286,0.1303,0.1441,0.15,0.116,0.1162,0.1163,0.1163,0,0.0665,0.0491,0.0468,0.0576,0.0602,0.0769,0.1045,0.1182,0.1352,0.1439,0.1529,0.1538,0.1576,0.158,0.1559,0.1601,0.1548,0.1496,0.1484,0.1466,0.1317,0.1052,0.1175,0.1174,0.1173,0.1172,0.1171,0,0.0727,0.0629,0.0607,0.0631,0.0713,0.0879,0.1054,0.1268,0.1387,0.1575,0.1643,0.1705,0.1722,0.1742,0.1642,0.1646,0.1626,0.1574,0.147,0.1453,0.1462,0.1441,0.1638,0.1638,0.1639,0.164,0.1641,0,0.0767,0.0796,0.0644,0.0645,0.0783,0.0928,0.1172,0.1332,0.1544,0.1646,0.1749,0.177,0.1826,0.1795,0.1699,0.1597,0.1652,0.152,0.1457,0.1504,0.1494,0.1454,0.1437,0.1627,0.163,0.1632,0.1634,0,0.0924,0.0761,0.0774,0.0786,0.0795,0.0969,0.1213,0.1348,0.1568,0.1697,0.1759,0.1852,0.1804,0.1761,0.1715,0.1638,0.1544,0.1502,0.142,0.1348,0.1228,0.1223,0.1274,0.1273,0.1273,0.1272,0.1272,0,0.0944,0.0902,0.0829,0.0784,0.0827,0.099,0.1061,0.1334,0.1446,0.1674,0.1693,0.1765,0.1772,0.1622,0.1624,0.1444,0.1466,0.1361,0.1447,0.1301,0.1232,0.1227,0.1222,0.1271,0.1271,0.1271,0.1271,0,0.1018,0.1013,0.0978,0.0837,0.0885,0.0895,0.1046,0.1125,0.1397,0.1551,0.1639,0.1666,0.1614,0.1554,0.152,0.1381,0.1418,0.1354,0.1352,0.1431,0.1297,0.1228,0.1224,0.1269,0.1269,0.1269,0.1269,0,0.1103,0.1098,0.0976,0.0926,0.0904,0.0849,0.0921,0.1026,0.1178,0.1467,0.1441,0.1502,0.1583,0.1511,0.142,0.1386,0.1324,0.1281,0.1281,0.1283,0.1467,0.1309,0.1274,0,0,0,0,0,0.1144,0.1073,0.0999,0.091,0.0917,0.0876,0.0893,0.0964,0.1168,0.1222,0.1387,0.1346,0.1357,0.1345,0.1292,0.1329,0.1273,0.1261,0.1211,0.1259,0.1261,0.1493,0,0,0,0,0,0,0.1124,0.1083,0.1001,0.0922,0.0862,0.0841,0.0846,0.0928,0.097,0.1171,0.1146,0.1321,0.1276,0.1397,0.1294,0.1293,0.1245,0.1313,0.1311,0.1258,0.126,0.1261,0.1501,0,0,0,0,0]},{"header":{"parameterUnit":"m.s-1","parameterCategory":2,"la1":30.2991,"la2":30.254,"lo1":-89.0895,"lo2":-89.0444,"dy":0.0017,"dx":0.0017,"nx":28,"ny":28,"refTime":"2024-06-25T09:00:00:Z","depth":"4","parameterNumber":3,"parameterNumberName":"V-component_of_CURRENTS"},"data":[0,0,0,0,0,0,0,0,0,0,0,0,0,0,0,0,0,0,0,0,0,0,0,0,0,0,0,0,0,0,0,0,0,0,0,0,0,0,0,0,0,0,0,0,0,0,0,0,0,0,0,0,0,0,0,0,0,0,0.0444,0.0444,0,0.0436,0.0436,0.0436,0.0462,0.0462,0.0463,0.0463,0.0413,0.0411,0.0409,0,0,0,0,0,0,0,0,0,0,0,0,0,0.0337,0.034,0.0444,0.0444,0.0444,0.0436,0.0436,0.0436,0.0462,0.0462,0.0463,0.0464,0.0413,0.0411,0.0409,0,0,0,0,0,0,0,0,0,0,0,0,0,0.0365,0.0341,0.0445,0.0453,0.0453,0.0436,0.0436,0.0436,0.0462,0.0462,0.0463,0.0464,0.0414,0.0412,0.0409,0.0378,0,0,0.0401,0.04,0,0,0,0,0,0,0,0,0.0364,0.037,0.0452,0.0452,0.0453,0.0448,0.0379,0.0414,0.0462,0.0462,0.0463,0.0464,0.0418,0.0415,0.0417,0.0376,0.0374,0.04,0.0399,0.0398,0.0397,0,0,0,0,0,0,0,0.0362,0.0369,0.0445,0.0451,0.0452,0.0407,0.0413,0.0386,0.0438,0.0462,0.0463,0.0457,0.0418,0.042,0.0416,0.0373,0.0401,0.0398,0.0397,0.0396,0.0234,0.0231,0,0,0,0,0,0,0.0364,0.0368,0.0445,0.0444,0.0405,0.0408,0.0416,0.0451,0.0439,0.0437,0.0456,0.0458,0.0424,0.0419,0.0414,0.0343,0.0398,0.0395,0.0394,0.0236,0.0233,0.023,0,0,0,0,0,0,0.0362,0.0372,0.0445,0.04,0.0406,0.041,0.0449,0.0451,0.0473,0.0434,0.0433,0.0478,0.0424,0.0418,0.039,0.0342,0.0394,0.0392,0.0239,0.0235,0.0232,0.0221,0,0,0,0,0,0,0.036,0.0373,0.0413,0.0402,0.0408,0.0449,0.0448,0.045,0.0464,0.0468,0.0452,0.0447,0.0424,0.0394,0.0388,0.0339,0.039,0.0243,0.0238,0.0233,0.0225,0.0217,0.0211,0,0,0,0,0,0.0357,0.0381,0.0416,0.0425,0.0461,0.0449,0.0449,0.0454,0.0465,0.0477,0.0454,0.0449,0.0356,0.0391,0.0384,0.0333,0.0245,0.0239,0.0233,0.0228,0.0219,0.0211,0,0,0,0,0,0,0.0332,0.0386,0.0424,0.0462,0.0472,0.0453,0.0465,0.0466,0.0461,0.0476,0.0438,0.043,0.0373,0.0358,0.0398,0.0265,0.029,0.0282,0.0288,0.0279,0.0272,0.0285,0.0387,0,0,0,0,0,0.0355,0.041,0.0429,0.0464,0.0478,0.0483,0.0485,0.0494,0.0478,0.048,0.0453,0.0409,0.0337,0.0319,0.0269,0.0223,0.0192,0.0174,0.0167,0.0162,0.0163,0.0081,0.0068,0.021,0.021,0.021,0,0,0.0348,0.039,0.0416,0.0466,0.0483,0.0502,0.0488,0.0505,0.0496,0.0471,0.0452,0.0393,0.0318,0.0248,0.022,0.0237,0.0099,0.0154,0.015,0.0154,0.0073,0.006,0.0048,0.0206,0.0207,0.0207,0,0,0.0352,0.0414,0.0464,0.0483,0.0524,0.0525,0.0537,0.0536,0.0519,0.0491,0.0438,0.0353,0.0294,0.0203,0.0151,0.0075,0.0062,0.0058,0.0042,-0.0038,-0.005,-0.006,-0.0128,-0.0145,0.0059,0.0059,0.0059,0,0.0351,0.0433,0.0464,0.0509,0.0532,0.0541,0.0579,0.0546,0.0524,0.0487,0.0488,0.0315,0.0255,0.0115,0.0078,0.0057,0.0031,0.0087,-0.0044,-0.0055,-0.0066,-0.0133,-0.0151,0.0058,0.0058,0.0058,0.0058,0,0.0387,0.0463,0.0483,0.057,0.0583,0.0618,0.0594,0.0578,0.0557,0.0508,0.0384,0.0277,0.018,0.0112,0.0074,-0.0057,-0.0046,-0.0043,-0.0011,-0.008,-0.0147,-0.0166,0.0056,0.0057,0.0057,0.0057,0,0,0.0369,0.0499,0.0506,0.0583,0.0635,0.065,0.0618,0.0587,0.056,0.0466,0.0389,0.0205,0.0154,0.0088,0.0001,-0.0096,-0.0215,-0.0089,-0.0093,-0.0136,-0.0371,-0.0245,-0.0253,-0.0212,-0.0215,-0.0218,-0.0391,0,0.0409,0.0506,0.0558,0.0651,0.0709,0.0716,0.069,0.0644,0.0579,0.0496,0.0316,0.0228,0.0141,0.0101,-0.0023,-0.0174,-0.026,-0.0167,-0.0316,-0.0321,-0.0182,-0.0269,-0.0228,-0.0405,-0.0409,-0.0412,-0.0414,0,0.0434,0.0509,0.0612,0.073,0.0756,0.0813,0.0802,0.0775,0.0631,0.0571,0.0425,0.0314,0.0103,0.0081,-0.022,-0.0144,-0.0245,-0.0359,-0.0367,-0.0253,-0.0227,-0.0323,-0.0447,-0.0445,-0.0442,-0.044,-0.0438,0,0.0401,0.0547,0.0646,0.0686,0.0796,0.0848,0.0888,0.0805,0.0767,0.0634,0.0583,0.0342,0.0226,0.0027,-0.0209,-0.0204,-0.0501,-0.052,-0.051,-0.0503,-0.0556,-0.0543,-0.0683,-0.0683,-0.0682,-0.0682,-0.0681,0,0.0427,0.0511,0.067,0.0725,0.083,0.0901,0.0958,0.0924,0.0873,0.0796,0.0646,0.0508,0.0218,0.0007,-0.0194,-0.0408,-0.0485,-0.0528,-0.0543,-0.056,-0.0546,-0.057,-0.0554,-0.0688,-0.0687,-0.0686,-0.0685,0,0.0404,0.0498,0.0623,0.0779,0.0832,0.0909,0.1038,0.1039,0.1009,0.0901,0.0868,0.0618,0.0351,0.009,-0.0245,-0.036,-0.0584,-0.0612,-0.0604,-0.0612,-0.0546,-0.053,-0.0664,-0.0661,-0.0659,-0.0656,-0.0655,0,0.0422,0.0481,0.0636,0.0694,0.0807,0.0938,0.0995,0.1069,0.105,0.0921,0.0831,0.0625,0.0429,0.004,-0.0212,-0.0518,-0.0535,-0.0618,-0.0609,-0.0545,-0.0547,-0.0535,-0.0522,-0.0651,-0.065,-0.0649,-0.0649,0,0.0451,0.0497,0.0585,0.068,0.0803,0.0896,0.0997,0.1002,0.1016,0.0997,0.0802,0.0619,0.0347,0.004,-0.0123,-0.0371,-0.0567,-0.0593,-0.0601,-0.0594,-0.0531,-0.0532,-0.0523,-0.064,-0.0641,-0.0642,-0.0643,0,0.0468,0.0502,0.0588,0.0686,0.0784,0.0832,0.0899,0.0925,0.0949,0.0854,0.0766,0.0516,0.037,0.0115,-0.0103,-0.0251,-0.0313,-0.0362,-0.0384,-0.0396,-0.0238,-0.0114,-0.0121,0,0,0,0,0,0.0499,0.0517,0.0578,0.068,0.0758,0.0818,0.0871,0.0922,0.0946,0.083,0.083,0.0589,0.0315,0.0149,0.0018,-0.0086,-0.0354,-0.0242,-0.0425,-0.0592,-0.0602,-0.0448,0,0,0,0,0,0,0.0509,0.0565,0.0575,0.0664,0.071,0.0808,0.0838,0.0845,0.0791,0.0774,0.0613,0.0593,0.03,0.0398,0.0023,-0.0026,-0.015,-0.0363,-0.0364,-0.0586,-0.0596,-0.0604,-0.0449,0,0,0,0,0]}]]